DAL4870 KRDU-KIND

Flight info

Callsign DAL4870
Flight time 1h 27m
Altitude 32000
Route LWOOD5 DANCO ZIEBR HAGAL GIIBS4
Aircraft A319/M-SDE3FGHIRWY/LB1

Departure

Time 2026-05-07 01:11
Airport Raleigh-Durham International Airport (KRDU)

Arrival

Time 2026-05-07 02:39
Airport Indianapolis International Airport (KIND)
Time Latitude Longitude Altitude Speed Heading
2026-05-07 00:50 35.87778 -78.79379 392 ft 0 kts 135°
2026-05-07 00:56 35.87788 -78.79391 392 ft 3 kts 129°
2026-05-07 00:57 35.87800 -78.79411 392 ft 3 kts 112°
2026-05-07 00:57 35.87805 -78.79435 392 ft 3 kts 89°
2026-05-07 00:57 35.87802 -78.79459 392 ft 3 kts 60°
2026-05-07 00:57 35.87795 -78.79472 392 ft 1 kts 45°
2026-05-07 00:58 35.87794 -78.79472 392 ft 0 kts 45°
2026-05-07 01:00 35.87795 -78.79472 392 ft 0 kts 45°
2026-05-07 01:01 35.87808 -78.79456 392 ft 8 kts 45°
2026-05-07 01:01 35.87848 -78.79406 392 ft 9 kts 44°
2026-05-07 01:01 35.87881 -78.79366 392 ft 4 kts 45°
2026-05-07 01:01 35.87890 -78.79356 392 ft 0 kts 44°
2026-05-07 01:02 35.87900 -78.79343 392 ft 10 kts 44°
2026-05-07 01:02 35.87957 -78.79273 392 ft 12 kts 44°
2026-05-07 01:02 35.88028 -78.79187 392 ft 18 kts 44°
2026-05-07 01:03 35.88121 -78.79069 392 ft 16 kts 47°
2026-05-07 01:03 35.88227 -78.78935 391 ft 25 kts 45°
2026-05-07 01:03 35.88333 -78.78803 391 ft 22 kts 45°
2026-05-07 01:03 35.88441 -78.78671 392 ft 22 kts 45°
2026-05-07 01:04 35.88548 -78.78538 392 ft 22 kts 45°
2026-05-07 01:04 35.88640 -78.78424 392 ft 18 kts 44°
2026-05-07 01:04 35.88730 -78.78312 392 ft 19 kts 46°
2026-05-07 01:04 35.88823 -78.78199 392 ft 19 kts 47°
2026-05-07 01:05 35.88917 -78.78083 392 ft 19 kts 44°
2026-05-07 01:05 35.88975 -78.77970 392 ft 13 kts 72°
2026-05-07 01:05 35.89009 -78.77891 392 ft 8 kts 49°
2026-05-07 01:05 35.89050 -78.77834 392 ft 8 kts 46°
2026-05-07 01:06 35.89117 -78.77753 392 ft 15 kts 44°
2026-05-07 01:06 35.89199 -78.77657 392 ft 13 kts 41°
2026-05-07 01:06 35.89264 -78.77686 392 ft 5 kts 318°
2026-05-07 01:06 35.89271 -78.77693 392 ft 0 kts 317°
2026-05-07 01:07 35.89297 -78.77724 392 ft 11 kts 317°
2026-05-07 01:07 35.89305 -78.77732 392 ft 0 kts 316°
2026-05-07 01:09 35.89305 -78.77733 392 ft 1 kts 316°
2026-05-07 01:09 35.89349 -78.77795 393 ft 16 kts 291°
2026-05-07 01:09 35.89335 -78.77864 392 ft 0 kts 227°
2026-05-07 01:10 35.89327 -78.77874 392 ft 9 kts 228°
2026-05-07 01:10 35.89082 -78.78176 391 ft 88 kts 225°
2026-05-07 01:10 35.88494 -78.78900 391 ft 148 kts 225°
2026-05-07 01:11 35.87703 -78.79864 804 ft 161 kts 224°
2026-05-07 01:11 35.86892 -78.80801 1510 ft 158 kts 223°
2026-05-07 01:11 35.86077 -78.81685 2222 ft 159 kts 223°
2026-05-07 01:11 35.85177 -78.82616 2591 ft 179 kts 221°
2026-05-07 01:12 35.84177 -78.83669 2930 ft 198 kts 227°
2026-05-07 01:12 35.83532 -78.85243 3341 ft 219 kts 260°
2026-05-07 01:12 35.83817 -78.87168 3897 ft 245 kts 293°
2026-05-07 01:12 35.84701 -78.88997 4842 ft 249 kts 297°
2026-05-07 01:13 35.85641 -78.90799 5810 ft 251 kts 299°
2026-05-07 01:13 35.86605 -78.92613 6739 ft 254 kts 299°
2026-05-07 01:13 35.87579 -78.94452 7595 ft 258 kts 299°
2026-05-07 01:13 35.88559 -78.96320 8474 ft 261 kts 298°
2026-05-07 01:14 35.89545 -78.98217 9359 ft 265 kts 298°
2026-05-07 01:14 35.90544 -79.00149 10186 ft 270 kts 298°
2026-05-07 01:14 35.91588 -79.02189 10519 ft 293 kts 298°
2026-05-07 01:14 35.92715 -79.04403 10745 ft 317 kts 298°
2026-05-07 01:15 35.93930 -79.06790 10931 ft 339 kts 298°
2026-05-07 01:15 35.95209 -79.09293 11428 ft 349 kts 298°
2026-05-07 01:15 35.96517 -79.11841 12119 ft 353 kts 298°
2026-05-07 01:15 35.97834 -79.14408 12842 ft 356 kts 298°
2026-05-07 01:16 35.99161 -79.17000 13568 ft 358 kts 298°
2026-05-07 01:16 36.00496 -79.19611 14235 ft 361 kts 298°
2026-05-07 01:16 36.01840 -79.22240 14925 ft 362 kts 298°
2026-05-07 01:16 36.03161 -79.24889 15622 ft 361 kts 295°
2026-05-07 01:17 36.04209 -79.27698 16329 ft 360 kts 290°
2026-05-07 01:17 36.05210 -79.30537 17039 ft 360 kts 290°
2026-05-07 01:17 36.06253 -79.33357 17730 ft 363 kts 295°
2026-05-07 01:17 36.07698 -79.35942 18375 ft 370 kts 306°
2026-05-07 01:18 36.09607 -79.38127 18916 ft 380 kts 317°
2026-05-07 01:18 36.11873 -79.39875 19433 ft 387 kts 322°
2026-05-07 01:18 36.14198 -79.41570 19920 ft 389 kts 322°
2026-05-07 01:18 36.16539 -79.43280 20389 ft 392 kts 322°
2026-05-07 01:19 36.18892 -79.45002 20860 ft 394 kts 322°
2026-05-07 01:19 36.21264 -79.46737 21318 ft 397 kts 322°
2026-05-07 01:19 36.23650 -79.48481 21770 ft 400 kts 322°
2026-05-07 01:19 36.26056 -79.50239 22212 ft 402 kts 322°
2026-05-07 01:20 36.28471 -79.52009 22650 ft 404 kts 321°
2026-05-07 01:20 36.30902 -79.53793 23072 ft 407 kts 321°
2026-05-07 01:20 36.33343 -79.55585 23495 ft 410 kts 321°
2026-05-07 01:20 36.35803 -79.57388 23837 ft 412 kts 321°
2026-05-07 01:21 36.38282 -79.59205 24187 ft 414 kts 321°
2026-05-07 01:21 36.40770 -79.61027 24526 ft 416 kts 321°
2026-05-07 01:21 36.43268 -79.62861 24842 ft 419 kts 321°
2026-05-07 01:21 36.45783 -79.64710 25153 ft 421 kts 321°
2026-05-07 01:22 36.48307 -79.66573 25474 ft 423 kts 321°
2026-05-07 01:22 36.50846 -79.68449 25785 ft 425 kts 321°
2026-05-07 01:22 36.53394 -79.70331 26094 ft 427 kts 321°
2026-05-07 01:22 36.55936 -79.72249 26368 ft 426 kts 317°
2026-05-07 01:23 36.58184 -79.74512 26646 ft 418 kts 308°
2026-05-07 01:23 36.60080 -79.77215 26947 ft 412 kts 300°
2026-05-07 01:23 36.61655 -79.80174 27245 ft 411 kts 297°
2026-05-07 01:23 36.63215 -79.83164 27631 ft 411 kts 297°
2026-05-07 01:24 36.64770 -79.86132 28088 ft 409 kts 297°
2026-05-07 01:24 36.66323 -79.89093 28538 ft 407 kts 297°
2026-05-07 01:24 36.67871 -79.92046 28982 ft 406 kts 296°
2026-05-07 01:24 36.69410 -79.94985 29432 ft 405 kts 296°
2026-05-07 01:25 36.70946 -79.97923 29893 ft 403 kts 296°
2026-05-07 01:25 36.72471 -80.00848 30314 ft 402 kts 296°
2026-05-07 01:25 36.73984 -80.03759 30789 ft 398 kts 296°
2026-05-07 01:25 36.75474 -80.06628 31335 ft 392 kts 296°
2026-05-07 01:26 36.76950 -80.09461 31796 ft 387 kts 295°
2026-05-07 01:26 36.78410 -80.12270 31941 ft 388 kts 295°
2026-05-07 01:26 36.79884 -80.15124 31961 ft 395 kts 295°
2026-05-07 01:27 36.82878 -80.20930 31950 ft 399 kts 295°
2026-05-07 01:27 36.85895 -80.26751 31940 ft 399 kts 295°
2026-05-07 01:28 36.88918 -80.32579 31949 ft 400 kts 295°
2026-05-07 01:28 36.91933 -80.38417 31960 ft 399 kts 295°
2026-05-07 01:29 36.94426 -80.43265 31966 ft 399 kts 295°
2026-05-07 01:29 36.97416 -80.49105 31960 ft 398 kts 295°
2026-05-07 01:30 37.00411 -80.54939 31982 ft 398 kts 294°
2026-05-07 01:30 37.03879 -80.61706 32001 ft 397 kts 294°
2026-05-07 01:31 37.06374 -80.66582 32000 ft 396 kts 294°
2026-05-07 01:31 37.09099 -80.72502 32007 ft 385 kts 284°
2026-05-07 01:32 37.10848 -80.78796 32003 ft 382 kts 283°
2026-05-07 01:32 37.12586 -80.85043 31987 ft 381 kts 283°
2026-05-07 01:33 37.14318 -80.91312 31965 ft 380 kts 283°
2026-05-07 01:33 37.16042 -80.97573 31972 ft 379 kts 283°
2026-05-07 01:34 37.17759 -81.03818 31993 ft 379 kts 282°
2026-05-07 01:34 37.18048 -81.04872 31993 ft 379 kts 282°
2026-05-07 01:35 37.21286 -81.16711 32020 ft 378 kts 282°
2026-05-07 01:35 37.22989 -81.22938 32016 ft 377 kts 282°
2026-05-07 01:36 37.24677 -81.29136 32017 ft 377 kts 282°
2026-05-07 01:36 37.26376 -81.35402 32010 ft 377 kts 282°
2026-05-07 01:37 37.28050 -81.41585 32001 ft 376 kts 282°
2026-05-07 01:37 37.29726 -81.47804 31994 ft 376 kts 282°
2026-05-07 01:38 37.31402 -81.54020 31980 ft 376 kts 282°
2026-05-07 01:38 37.33074 -81.60239 31974 ft 376 kts 282°
2026-05-07 01:39 37.34740 -81.66457 31975 ft 375 kts 282°
2026-05-07 01:39 37.36404 -81.72676 31973 ft 375 kts 282°
2026-05-07 01:40 37.38063 -81.78896 31973 ft 375 kts 282°
2026-05-07 01:40 37.39721 -81.85117 31972 ft 375 kts 281°
2026-05-07 01:41 37.41373 -81.91334 31963 ft 375 kts 281°
2026-05-07 01:41 37.43021 -81.97550 31969 ft 374 kts 282°
2026-05-07 01:42 37.44665 -82.03775 31970 ft 374 kts 281°
2026-05-07 01:42 37.46291 -82.09945 31967 ft 374 kts 281°
2026-05-07 01:43 37.47935 -82.16194 31982 ft 374 kts 281°
2026-05-07 01:43 37.49555 -82.22365 32003 ft 373 kts 281°
2026-05-07 01:44 37.51177 -82.28560 32014 ft 372 kts 281°
2026-05-07 01:44 37.52796 -82.34752 32039 ft 372 kts 281°
2026-05-07 01:45 37.54409 -82.40928 32041 ft 371 kts 281°
2026-05-07 01:45 37.56007 -82.47100 32064 ft 370 kts 281°
2026-05-07 01:46 37.57605 -82.53268 32066 ft 370 kts 281°
2026-05-07 01:46 37.59198 -82.59433 32067 ft 370 kts 281°
2026-05-07 01:47 37.60793 -82.65598 32065 ft 370 kts 281°
2026-05-07 01:47 37.62378 -82.71759 32050 ft 369 kts 281°
2026-05-07 01:48 37.63903 -82.77934 32048 ft 367 kts 279°
2026-05-07 01:48 37.65218 -82.84153 32040 ft 367 kts 278°
2026-05-07 01:49 37.66450 -82.90402 32028 ft 367 kts 278°
2026-05-07 01:49 37.67711 -82.96658 32020 ft 368 kts 278°
2026-05-07 01:50 37.69002 -83.02906 32005 ft 368 kts 278°
2026-05-07 01:50 37.70296 -83.09148 32014 ft 367 kts 278°
2026-05-07 01:51 37.71574 -83.15388 32014 ft 367 kts 278°
2026-05-07 01:51 37.72847 -83.21628 32015 ft 367 kts 278°
2026-05-07 01:52 37.74122 -83.27866 32024 ft 367 kts 278°
2026-05-07 01:52 37.75397 -83.34111 32026 ft 367 kts 277°
2026-05-07 01:53 37.76658 -83.40357 32022 ft 367 kts 277°
2026-05-07 01:53 37.77923 -83.46596 32020 ft 367 kts 277°
2026-05-07 01:54 37.79184 -83.52846 32020 ft 366 kts 277°
2026-05-07 01:54 37.80423 -83.59046 32016 ft 366 kts 277°
2026-05-07 01:55 37.81671 -83.65281 32019 ft 366 kts 277°
2026-05-07 01:55 37.82921 -83.71515 32028 ft 366 kts 277°
2026-05-07 01:56 37.84169 -83.77742 32041 ft 365 kts 277°
2026-05-07 01:56 37.85413 -83.83969 32046 ft 365 kts 277°
2026-05-07 01:57 37.86643 -83.90186 32050 ft 364 kts 277°
2026-05-07 01:57 37.87862 -83.96393 32049 ft 360 kts 277°
2026-05-07 01:58 37.89058 -84.02448 32044 ft 350 kts 276°
2026-05-07 01:58 37.90050 -84.07517 32046 ft 356 kts 276°
2026-05-07 01:59 37.91225 -84.13571 32043 ft 357 kts 276°
2026-05-07 01:59 37.92413 -84.19676 32044 ft 357 kts 276°
2026-05-07 02:00 37.93609 -84.25783 32044 ft 357 kts 276°
2026-05-07 02:00 37.94795 -84.31898 32038 ft 357 kts 276°
2026-05-07 02:01 37.95978 -84.38011 32041 ft 357 kts 276°
2026-05-07 02:01 37.97160 -84.44118 32044 ft 357 kts 276°
2026-05-07 02:02 37.98336 -84.50231 32049 ft 357 kts 276°
2026-05-07 02:02 37.99504 -84.56313 31359 ft 353 kts 276°
2026-05-07 02:02 38.00085 -84.59350 30517 ft 357 kts 276°
2026-05-07 02:03 38.00670 -84.62433 30197 ft 362 kts 277°
2026-05-07 02:03 38.01264 -84.65555 30044 ft 365 kts 277°
2026-05-07 02:03 38.01860 -84.68692 30026 ft 367 kts 277°
2026-05-07 02:04 38.03052 -84.74988 30036 ft 368 kts 277°
2026-05-07 02:04 38.04249 -84.81301 30039 ft 368 kts 277°
2026-05-07 02:05 38.05446 -84.87597 30037 ft 362 kts 277°
2026-05-07 02:05 38.06604 -84.93741 30041 ft 356 kts 276°
2026-05-07 02:06 38.07729 -84.99811 30044 ft 356 kts 276°
2026-05-07 02:06 38.08871 -85.05921 30048 ft 355 kts 276°
2026-05-07 02:07 38.10014 -85.12023 30052 ft 355 kts 276°
2026-05-07 02:07 38.11719 -85.21172 30051 ft 354 kts 276°
2026-05-07 02:08 38.12841 -85.27257 30049 ft 354 kts 276°
2026-05-07 02:08 38.13967 -85.33354 30048 ft 354 kts 276°
2026-05-07 02:09 38.15087 -85.39440 30055 ft 354 kts 276°
2026-05-07 02:09 38.16203 -85.45523 30048 ft 354 kts 276°
2026-05-07 02:10 38.17314 -85.51613 30070 ft 354 kts 276°
2026-05-07 02:10 38.18194 -85.54577 30052 ft 369 kts 289°
2026-05-07 02:10 38.19809 -85.57239 30061 ft 388 kts 300°
2026-05-07 02:11 38.23093 -85.62450 30077 ft 377 kts 295°
2026-05-07 02:11 38.26245 -85.67770 30077 ft 376 kts 295°
2026-05-07 02:12 38.29418 -85.73101 30055 ft 375 kts 295°
2026-05-07 02:12 38.32555 -85.78346 30057 ft 374 kts 295°
2026-05-07 02:13 38.35721 -85.83617 30056 ft 374 kts 295°
2026-05-07 02:13 38.38882 -85.88863 30060 ft 374 kts 295°
2026-05-07 02:14 38.40468 -85.91485 29876 ft 372 kts 295°
2026-05-07 02:14 38.42051 -85.94097 28780 ft 373 kts 295°
2026-05-07 02:14 38.43649 -85.96743 27530 ft 381 kts 296°
2026-05-07 02:14 38.45676 -85.99108 26681 ft 415 kts 313°
2026-05-07 02:15 38.48463 -86.00626 26425 ft 460 kts 332°
2026-05-07 02:15 38.51738 -86.00922 26187 ft 481 kts 348°
2026-05-07 02:15 38.55053 -86.00519 25948 ft 475 kts 353°
2026-05-07 02:15 38.58292 -85.99816 25712 ft 468 kts 356°
2026-05-07 02:16 38.61440 -85.98977 25481 ft 457 kts 357°
2026-05-07 02:16 38.64512 -85.98130 25249 ft 445 kts 356°
2026-05-07 02:16 38.67510 -85.97362 25017 ft 433 kts 354°
2026-05-07 02:16 38.70432 -85.96693 24789 ft 421 kts 353°
2026-05-07 02:17 38.73291 -85.96097 24565 ft 410 kts 352°
2026-05-07 02:17 38.76081 -85.95551 24336 ft 401 kts 351°
2026-05-07 02:17 38.78830 -85.95028 24109 ft 397 kts 351°
2026-05-07 02:17 38.81560 -85.94512 23887 ft 395 kts 351°
2026-05-07 02:18 38.84276 -85.93988 23662 ft 395 kts 351°
2026-05-07 02:18 38.86990 -85.93448 23413 ft 394 kts 352°
2026-05-07 02:18 38.89688 -85.92897 23149 ft 392 kts 352°
2026-05-07 02:18 38.92379 -85.92336 22888 ft 391 kts 352°
2026-05-07 02:19 38.95055 -85.91773 22631 ft 389 kts 352°
2026-05-07 02:19 38.97721 -85.91213 22376 ft 386 kts 352°
2026-05-07 02:19 39.00366 -85.90663 22118 ft 384 kts 353°
2026-05-07 02:19 39.02995 -85.90117 21870 ft 382 kts 353°
2026-05-07 02:20 39.05609 -85.89578 21615 ft 379 kts 353°
2026-05-07 02:20 39.08205 -85.89045 21375 ft 377 kts 353°
2026-05-07 02:20 39.10790 -85.88512 21127 ft 375 kts 353°
2026-05-07 02:20 39.13353 -85.87983 20880 ft 372 kts 353°
2026-05-07 02:21 39.15904 -85.87455 20631 ft 370 kts 353°
2026-05-07 02:21 39.18451 -85.86930 20078 ft 374 kts 354°
2026-05-07 02:21 39.20970 -85.86410 19797 ft 368 kts 354°
2026-05-07 02:21 39.23515 -85.85872 19273 ft 363 kts 354°
2026-05-07 02:22 39.25997 -85.85348 18683 ft 359 kts 355°
2026-05-07 02:22 39.28448 -85.84833 18093 ft 354 kts 354°
2026-05-07 02:22 39.30792 -85.84659 17464 ft 330 kts 341°
2026-05-07 02:22 39.32976 -85.85134 16838 ft 308 kts 329°
2026-05-07 02:23 39.34904 -85.86123 16215 ft 290 kts 318°
2026-05-07 02:23 39.36554 -85.87499 15592 ft 276 kts 309°
2026-05-07 02:23 39.38033 -85.89054 14963 ft 274 kts 309°
2026-05-07 02:23 39.39510 -85.90600 14371 ft 273 kts 310°
2026-05-07 02:24 39.40984 -85.92140 13766 ft 271 kts 310°
2026-05-07 02:24 39.42452 -85.93670 13106 ft 271 kts 311°
2026-05-07 02:24 39.42946 -85.94186 12876 ft 271 kts 312°
2026-05-07 02:24 39.44072 -85.95362 12352 ft 271 kts 313°
2026-05-07 02:25 39.45531 -85.96889 11782 ft 268 kts 314°
2026-05-07 02:25 39.46989 -85.98394 11295 ft 267 kts 315°
2026-05-07 02:25 39.48464 -85.99856 10807 ft 268 kts 317°
2026-05-07 02:25 39.49966 -86.01320 10326 ft 271 kts 318°
2026-05-07 02:26 39.51480 -86.02793 9895 ft 272 kts 319°
2026-05-07 02:26 39.52997 -86.04270 9392 ft 274 kts 319°
2026-05-07 02:26 39.54501 -86.05741 9075 ft 269 kts 319°
2026-05-07 02:26 39.55990 -86.07203 8604 ft 267 kts 319°
2026-05-07 02:27 39.57462 -86.08649 7937 ft 265 kts 320°
2026-05-07 02:27 39.58926 -86.10088 7367 ft 262 kts 320°
2026-05-07 02:27 39.60280 -86.11645 6875 ft 260 kts 312°
2026-05-07 02:27 39.61569 -86.13285 6361 ft 259 kts 319°
2026-05-07 02:28 39.63175 -86.14199 6045 ft 248 kts 351°
2026-05-07 02:28 39.64815 -86.13967 6002 ft 228 kts 12°
2026-05-07 02:28 39.66301 -86.13393 6008 ft 220 kts 14°
2026-05-07 02:28 39.67739 -86.12797 6009 ft 219 kts 15°
2026-05-07 02:29 39.69187 -86.12189 6008 ft 219 kts 15°
2026-05-07 02:29 39.70633 -86.11580 6008 ft 219 kts 15°
2026-05-07 02:29 39.72081 -86.10966 6010 ft 219 kts 15°
2026-05-07 02:29 39.73527 -86.10350 6009 ft 219 kts 15°
2026-05-07 02:30 39.74971 -86.09733 6008 ft 219 kts 15°
2026-05-07 02:30 39.76409 -86.09109 5877 ft 218 kts 17°
2026-05-07 02:30 39.77667 -86.08002 5542 ft 221 kts 41°
2026-05-07 02:30 39.78736 -86.06564 5234 ft 221 kts 44°
2026-05-07 02:31 39.79771 -86.05101 4949 ft 219 kts 45°
2026-05-07 02:31 39.80796 -86.03637 4639 ft 218 kts 45°
2026-05-07 02:31 39.81814 -86.02176 4342 ft 217 kts 45°
2026-05-07 02:31 39.82836 -86.00746 4065 ft 214 kts 38°
2026-05-07 02:32 39.84139 -85.99991 3993 ft 204 kts 360°
2026-05-07 02:32 39.85481 -86.00414 4003 ft 200 kts 325°
2026-05-07 02:32 39.86559 -86.01540 4017 ft 199 kts 316°
2026-05-07 02:32 39.87575 -86.02767 4018 ft 199 kts 315°
2026-05-07 02:33 39.88571 -86.04024 4012 ft 199 kts 310°
2026-05-07 02:33 39.89096 -86.05651 4018 ft 199 kts 273°
2026-05-07 02:33 39.88683 -86.07353 4025 ft 205 kts 237°
2026-05-07 02:33 39.87523 -86.08445 4025 ft 211 kts 206°
2026-05-07 02:34 39.86296 -86.09459 4017 ft 208 kts 229°
2026-05-07 02:34 39.85320 -86.10840 4019 ft 208 kts 229°
2026-05-07 02:34 39.84301 -86.12175 4017 ft 208 kts 228°
2026-05-07 02:34 39.83271 -86.13499 3904 ft 208 kts 227°
2026-05-07 02:35 39.82243 -86.14817 3677 ft 206 kts 228°
2026-05-07 02:35 39.81220 -86.16127 3409 ft 206 kts 228°
2026-05-07 02:35 39.80202 -86.17432 3131 ft 206 kts 228°
2026-05-07 02:35 39.79185 -86.18734 2852 ft 205 kts 228°
2026-05-07 02:36 39.78176 -86.20024 2599 ft 197 kts 228°
2026-05-07 02:36 39.77237 -86.21223 2318 ft 182 kts 229°
2026-05-07 02:36 39.76378 -86.22322 2088 ft 168 kts 229°
2026-05-07 02:36 39.75589 -86.23328 1863 ft 148 kts 229°
2026-05-07 02:37 39.74889 -86.24224 1658 ft 136 kts 229°
2026-05-07 02:37 39.74233 -86.25064 1467 ft 133 kts 227°
2026-05-07 02:37 39.73580 -86.25900 1271 ft 132 kts 226°
2026-05-07 02:37 39.72932 -86.26725 1068 ft 130 kts 227°
2026-05-07 02:38 39.72290 -86.27550 909 ft 130 kts 226°
2026-05-07 02:38 39.71647 -86.28362 788 ft 127 kts 228°
2026-05-07 02:38 39.71042 -86.29144 781 ft 103 kts 224°
2026-05-07 02:38 39.70655 -86.29643 782 ft 54 kts 225°
2026-05-07 02:39 39.70452 -86.29903 782 ft 39 kts 225°
2026-05-07 02:39 39.70374 -86.30056 781 ft 6 kts 340°
2026-05-07 02:39 39.70441 -86.30110 781 ft 11 kts 318°
2026-05-07 02:39 39.70468 -86.30141 781 ft 4 kts 334°
2026-05-07 02:40 39.70548 -86.30071 781 ft 29 kts 45°
2026-05-07 02:40 39.70683 -86.29901 781 ft 25 kts 44°
2026-05-07 02:40 39.70803 -86.29750 781 ft 24 kts 45°
2026-05-07 02:40 39.70925 -86.29596 781 ft 24 kts 45°
2026-05-07 02:41 39.71043 -86.29444 781 ft 24 kts 43°
2026-05-07 02:41 39.71131 -86.29344 781 ft 4 kts 353°
2026-05-07 02:41 39.71179 -86.29372 781 ft 15 kts 334°
2026-05-07 02:41 39.71305 -86.29409 781 ft 18 kts 355°
2026-05-07 02:42 39.71391 -86.29440 781 ft 10 kts 325°
2026-05-07 02:42 39.71416 -86.29461 781 ft 4 kts 328°
2026-05-07 02:42 39.71435 -86.29477 781 ft 2 kts 324°
2026-05-07 02:42 39.71437 -86.29479 781 ft 0 kts 324°
2026-05-07 02:43 39.71439 -86.29481 781 ft 2 kts 327°
2026-05-07 02:43 39.71461 -86.29502 781 ft 0 kts 322°